Previsão horária em Certaldo

Hoje, 2 Agosto, Segunda-feira

Tempo Temperatura Precipitação Vento Pressão Humidade
00:00 +21°C° 0 mm 3 m/s 752 mmHg 68%
01:00 +20°C° 0 mm 3 m/s 752 mmHg 68%
02:00 +20°C° 0 mm 2 m/s 752 mmHg 71%
03:00 +19°C° 0 mm 2 m/s 752 mmHg 74%
04:00 +20°C° 0 mm 1 m/s 752 mmHg 77%
05:00 +21°C° 0 mm 1 m/s 752 mmHg 72%
06:00 +22°C° 0 mm 1 m/s 752 mmHg 67%
07:00 +23°C° 0 mm 1 m/s 753 mmHg 62%
08:00 +25°C° 0 mm 3 m/s 753 mmHg 54%
09:00 +27°C° 0 mm 4 m/s 753 mmHg 45%
10:00 +29°C° 0 mm 6 m/s 753 mmHg 36%
11:00 +30°C° 0 mm 6 m/s 753 mmHg 35%
12:00 +30°C° 0 mm 7 m/s 753 mmHg 33%
13:00 +32°C° 0 mm 7 m/s 753 mmHg 31%
14:00 +30°C° 0 mm 7 m/s 753 mmHg 33%
15:00 +29°C° 0 mm 7 m/s 754 mmHg 34%
16:00 +29°C° 0 mm 6 m/s 754 mmHg 36%
17:00 +28°C° 0 mm 5 m/s 754 mmHg 41%
18:00 +26°C° 0 mm 4 m/s 754 mmHg 46%
19:00 +25°C° 0 mm 3 m/s 754 mmHg 51%
20:00 +22°C° 0 mm 3 m/s 754 mmHg 59%
21:00 +21°C° 0 mm 2 m/s 755 mmHg 66%
22:00 +20°C° 0 mm 1 m/s 755 mmHg 74%
23:00 +20°C° 0 mm 1 m/s 755 mmHg 76%

Amanhã, 3 Agosto, Terça-feira

Tempo Temperatura Precipitação Vento Pressão Humidade
00:00 +19°C° 0 mm 1 m/s 755 mmHg 79%
01:00 +17°C° 0 mm 0 m/s 755 mmHg 81%
02:00 +19°C° 0 mm 1 m/s 755 mmHg 82%
03:00 +19°C° 0 mm 1 m/s 755 mmHg 83%
04:00 +19°C° 0 mm 1 m/s 755 mmHg 83%
05:00 +20°C° 0 mm 1 m/s 755 mmHg 78%
06:00 +21°C° 0 mm 1 m/s 755 mmHg 73%
07:00 +22°C° 0 mm 1 m/s 755 mmHg 67%
08:00 +25°C° 0 mm 1 m/s 755 mmHg 57%
09:00 +27°C° 0 mm 1 m/s 755 mmHg 47%
10:00 +30°C° 0 mm 1 m/s 755 mmHg 38%
11:00 +31°C° 0 mm 2 m/s 754 mmHg 34%
12:00 +33°C° 0 mm 4 m/s 754 mmHg 29%
13:00 +34°C° 0 mm 5 m/s 753 mmHg 25%
14:00 +34°C° 0 mm 5 m/s 753 mmHg 26%
15:00 +33°C° 0 mm 5 m/s 753 mmHg 27%
16:00 +33°C° 0 mm 6 m/s 753 mmHg 27%
17:00 +30°C° 0 mm 5 m/s 753 mmHg 35%
18:00 +28°C° 0 mm 4 m/s 753 mmHg 42%
19:00 +26°C° 0 mm 3 m/s 753 mmHg 49%
20:00 +25°C° 0 mm 2 m/s 754 mmHg 58%
21:00 +23°C° 0 mm 2 m/s 754 mmHg 67%
22:00 +21°C° 0 mm 1 m/s 754 mmHg 75%
23:00 +21°C° 0 mm 1 m/s 754 mmHg 76%

Depois de amanhã, 4 Agosto, Quarta-feira

Tempo Temperatura Precipitação Vento Pressão Humidade
00:00 +21°C° 0 mm 1 m/s 754 mmHg 77%
01:00 +20°C° 0 mm 1 m/s 754 mmHg 78%
02:00 +20°C° 0 mm 1 m/s 754 mmHg 77%
03:00 +20°C° 0 mm 1 m/s 754 mmHg 77%
04:00 +20°C° 0 mm 1 m/s 753 mmHg 76%
05:00 +21°C° 0 mm 1 m/s 753 mmHg 70%
06:00 +22°C° 0 mm 1 m/s 753 mmHg 65%
07:00 +23°C° 0 mm 1 m/s 753 mmHg 59%
08:00 +26°C° 0 mm 1 m/s 753 mmHg 51%
09:00 +28°C° 0 mm 1 m/s 753 mmHg 42%
10:00 +30°C° 0 mm 1 m/s 753 mmHg 34%
11:00 +31°C° 0 mm 2 m/s 753 mmHg 32%
12:00 +33°C° 0 mm 3 m/s 752 mmHg 29%
13:00 +34°C° 0 mm 4 m/s 752 mmHg 27%
14:00 +34°C° 0 mm 4 m/s 752 mmHg 28%
15:00 +34°C° 0 mm 5 m/s 752 mmHg 28%
16:00 +33°C° 0 mm 5 m/s 751 mmHg 29%
17:00 +30°C° 0 mm 4 m/s 751 mmHg 38%
18:00 +28°C° 0 mm 3 m/s 752 mmHg 48%
19:00 +26°C° 0 mm 2 m/s 752 mmHg 57%
20:00 +25°C° 0 mm 2 m/s 752 mmHg 64%
21:00 +24°C° 0 mm 2 m/s 752 mmHg 72%
22:00 +22°C° 0 mm 1 m/s 752 mmHg 79%
23:00 +22°C° 0.3 mm 1 m/s 752 mmHg 82%

5 Agosto, Quinta-feira

Tempo Temperatura Precipitação Vento Pressão Humidade
00:00 +22°C° 0.3 mm 1 m/s 752 mmHg 84%
01:00 +22°C° 0.3 mm 1 m/s 752 mmHg 86%
02:00 +22°C° 0.1 mm 1 m/s 751 mmHg 87%
03:00 +21°C° 0.1 mm 1 m/s 751 mmHg 89%
04:00 +21°C° 0.1 mm 1 m/s 751 mmHg 90%
05:00 +22°C° 0.3 mm 1 m/s 751 mmHg 88%
06:00 +22°C° 0.3 mm 1 m/s 751 mmHg 86%
07:00 +23°C° 0.3 mm 2 m/s 751 mmHg 84%
08:00 +25°C° 0.3 mm 3 m/s 751 mmHg 72%
09:00 +26°C° 0.3 mm 5 m/s 751 mmHg 60%
10:00 +28°C° 0.3 mm 6 m/s 751 mmHg 49%
11:00 +29°C° 0 mm 7 m/s 751 mmHg 44%
12:00 +29°C° 0 mm 7 m/s 751 mmHg 39%
13:00 +31°C° 0 mm 8 m/s 751 mmHg 34%
14:00 +29°C° 0 mm 7 m/s 751 mmHg 36%
15:00 +29°C° 0 mm 7 m/s 751 mmHg 38%
16:00 +28°C° 0 mm 7 m/s 751 mmHg 40%
17:00 +27°C° 0 mm 6 m/s 750 mmHg 48%
18:00 +26°C° 0 mm 6 m/s 750 mmHg 55%
19:00 +23°C° 0 mm 5 m/s 750 mmHg 63%
20:00 +22°C° 0 mm 4 m/s 751 mmHg 68%
21:00 +21°C° 0 mm 3 m/s 751 mmHg 72%
22:00 +20°C° 0 mm 2 m/s 751 mmHg 77%
23:00 +20°C° 0 mm 2 m/s 751 mmHg 78%

6 Agosto, Sexta-feira

Tempo Temperatura Precipitação Vento Pressão Humidade
00:00 +20°C° 0 mm 2 m/s 751 mmHg 79%
01:00 +20°C° 0 mm 2 m/s 751 mmHg 80%
02:00 +21°C° 0 mm 1 m/s 751 mmHg 82%
03:00 +21°C° 0 mm 1 m/s 751 mmHg 84%
04:00 +21°C° 0 mm 1 m/s 751 mmHg 86%
05:00 +21°C° 0 mm 1 m/s 751 mmHg 82%
06:00 +22°C° 0 mm 1 m/s 751 mmHg 78%
07:00 +23°C° 0 mm 1 m/s 751 mmHg 74%
08:00 +25°C° 0 mm 1 m/s 751 mmHg 65%
09:00 +27°C° 0 mm 2 m/s 751 mmHg 56%
10:00 +29°C° 0 mm 2 m/s 751 mmHg 47%
11:00 +30°C° 0 mm 3 m/s 751 mmHg 42%
12:00 +32°C° 0 mm 4 m/s 751 mmHg 37%
13:00 +34°C° 0 mm 5 m/s 751 mmHg 32%
14:00 +33°C° 0 mm 5 m/s 751 mmHg 32%
15:00 +33°C° 0 mm 5 m/s 751 mmHg 32%
16:00 +33°C° 0 mm 6 m/s 750 mmHg 32%
17:00 +30°C° 0 mm 5 m/s 751 mmHg 40%
18:00 +28°C° 0 mm 4 m/s 751 mmHg 48%
19:00 +26°C° 0 mm 3 m/s 751 mmHg 57%
20:00 +25°C° 0 mm 3 m/s 751 mmHg 67%
21:00 +23°C° 0 mm 2 m/s 752 mmHg 77%
22:00 +21°C° 0 mm 1 m/s 752 mmHg 86%
23:00 +21°C° 0 mm 1 m/s 752 mmHg 87%

7 Agosto, Sábado

Tempo Temperatura Precipitação Vento Pressão Humidade
00:00 +19°C° 0 mm 0 m/s 752 mmHg 87%
01:00 +19°C° 0 mm 0 m/s 752 mmHg 87%
02:00 +20°C° 0 mm 1 m/s 752 mmHg 88%
03:00 +20°C° 0 mm 1 m/s 752 mmHg 88%
04:00 +20°C° 0 mm 1 m/s 752 mmHg 89%
05:00 +21°C° 0 mm 1 m/s 752 mmHg 82%
06:00 +22°C° 0 mm 1 m/s 752 mmHg 76%
07:00 +24°C° 0 mm 1 m/s 752 mmHg 69%
08:00 +26°C° 0 mm 1 m/s 752 mmHg 59%
09:00 +29°C° 0 mm 1 m/s 752 mmHg 48%
10:00 +32°C° 0 mm 1 m/s 752 mmHg 38%
11:00 +34°C° 0 mm 2 m/s 752 mmHg 34%
12:00 +36°C° 0 mm 3 m/s 751 mmHg 31%
13:00 +37°C° 0 mm 3 m/s 751 mmHg 28%
14:00 +37°C° 0 mm 4 m/s 751 mmHg 30%
15:00 +36°C° 0 mm 4 m/s 751 mmHg 31%
16:00 +36°C° 0 mm 5 m/s 751 mmHg 33%
17:00 +34°C° 0 mm 4 m/s 751 mmHg 40%
18:00 +31°C° 0 mm 3 m/s 751 mmHg 47%
19:00 +29°C° 0 mm 3 m/s 751 mmHg 55%
20:00 +27°C° 0 mm 2 m/s 752 mmHg 61%
21:00 +25°C° 0 mm 1 m/s 752 mmHg 68%
22:00 +24°C° 0 mm 1 m/s 753 mmHg 75%
23:00 +24°C° 0 mm 1 m/s 753 mmHg 74%
Mostrar mais

Necessitamos do seu Consentimento

A Meteoprog e os seus Fornecedores de Serviços podem armazenar e aceder a dados pessoais como cookies, identificadores do dispositivo ou outras tecnologias semelhantes existentes no seu dispositivo e processar estes dados para personalizar conteúdos e anúncios, assim como funcionalidades nas redes sociais e análise de tráfego.

  • Armazenar e/ou aceder a informações no seu dispositivo

    Os cookies, identificadores do dispositivo ou outras informações podem ser armazenados ou acedidos no seu dispositivo, para os fins acima indicados.

  • Anúncios e conteúdos personalizados, medição de anúncios e conteúdos, dados sobre o público-alvo e desenvolvimento de produtos

    Os anúncios e os conteúdos podem ser personalizados com base num perfil. Podem ser adicionados dados adicionais para uma maior personalização dos anúncios e dos conteúdos. A eficácia dos anúncios e dos conteúdos pode ser medida. Podem ser obtidas informações sobre o público que visualizou os anúncios e os conteúdos. Estes dados podem ser usados para desenvolver ou melhorar sistemas, softwares ou a experiência do utilizador.

Ao clicar em "Eu concordo”, permitirá o uso de cookies, identificadores do dispositivo e web beacons mencionados ou outras tecnologias semelhantes. As configurações do navegador do seu dispositivo podem ser alteradas.

Para certos fins, podem ser invocados interesses legítimos ao invés de consentimento. Pode ler mais informação sobre este assunto na nossa Política de Privacidade e Cookies.